QPF
0.01 0.01 0.01 0.02 0.03 0.04 0.04 0.04 0.03 0.03 0.02 0.02 0.02 0.02 0.02 0.02 0.03 0.05 0.05 0.04 0.02 0.02 0.02 0.01 0.01 0.01 0.01 0.01 0.02 0.02 0.03 0.05 0.05 0.03 0.02 0.02 0.02 0.03
0.01 0.01 0.02 0.03 0.04 0.04 0.04 0.05 0.04 0.03 0.02 0.01 0.01 0.01 0.01 0.02 0.02 0.03 0.04 0.04 0.02 0.01 0.02 0.02 0.01 0.01 0.01 0.02 0.01 0.02 0.02 0.03 0.04 0.03 0.03 0.02 0.01 0.02
0.02 0.02 0.03 0.03 0.04 0.04 0.05 0.05 0.05 0.04 0.03 0.02 0.01 0.01 0.02 0.01 0.01 0.01 0.03 0.04 0.02 0.01 0.01 0.01 0.01 0.01 0.02 0.02 0.02 0.02 0.02 0.03 0.03 0.03 0.04 0.03 0.02 0.02
0.03 0.03 0.04 0.04 0.04 0.05 0.06 0.05 0.05 0.05 0.04 0.02 0.02 0.02 0.02 0.02 0.01 0.01 0.01 0.02 0.01 0.01 0.00 0.00 0.00 0.01 0.01 0.02 0.03 0.02 0.03 0.03 0.03 0.03 0.03 0.04 0.03 0.02
0.03 0.03 0.03 0.04 0.04 0.05 0.06 0.07 0.06 0.06 0.05 0.04 0.03 0.03 0.03 0.03 0.02 0.01 0.01 0.01 0.01 0.00 0.00 0.00 0.00 0.00 0.01 0.01 0.02 0.02 0.02 0.02 0.02 0.02 0.02 0.02 0.03 0.03
0.03 0.03 0.04 0.04 0.04 0.05 0.06 0.08 0.08 0.08 0.07 0.06 0.04 0.03 0.04 0.05 0.04 0.02 0.01 0.01 0.00 0.00 0.00 0.01 0.01 0.01 0.01 0.01 0.02 0.02 0.02 0.01 0.02 0.02 0.02 0.02 0.02 0.02
0.04 0.03 0.03 0.04 0.04 0.05 0.05 0.06 0.07 0.07 0.07 0.06 0.05 0.04 0.05 0.06 0.06 0.04 0.02 0.01 0.01 0.01 0.01 0.01 0.01 0.01 0.01 0.02 0.03 0.02 0.02 0.02 0.02 0.02 0.02 0.02 0.02 0.02
0.02 0.02 0.02 0.03 0.03 0.03 0.04 0.04 0.04 0.05 0.04 0.04 0.03 0.02 0.01 0.02 0.04 0.04 0.04 0.03 0.02 0.01 0.01 0.01 0.01 0.01 0.00 0.01 0.01 0.02 0.02 0.02 0.01 0.01 0.01 0.02 0.03 0.02
0.02 0.02 0.02 0.02 0.03 0.02 0.03 0.02 0.02 0.03 0.03 0.04 0.04 0.02 0.01 0.01 0.03 0.03 0.03 0.03 0.02 0.01 0.02 0.01 0.01 0.01 0.01 0.02 0.02 0.01 0.01 0.01 0.01 0.01 0.01 0.02 0.03 0.03
0.01 0.01 0.01 0.02 0.03 0.03 0.03 0.03 0.02 0.01 0.01 0.02 0.03 0.04 0.02 0.02 0.03 0.03 0.03 0.03 0.02 0.02 0.02 0.02 0.01 0.01 0.01 0.03 0.04 0.03 0.02 0.01 0.01 0.01 0.01 0.01 0.02 0.03
0.01 0.01 0.01 0.01 0.01 0.02 0.03 0.03 0.03 0.02 0.01 0.01 0.02 0.03 0.04 0.03 0.04 0.04 0.03 0.03 0.02 0.01 0.02 0.03 0.03 0.02 0.02 0.02 0.03 0.03 0.02 0.02 0.01 0.01 0.01 0.01 0.01 0.03
0.01 0.01 0.01 0.01 0.01 0.00 0.01 0.01 0.01 0.01 0.01 0.01 0.01 0.01 0.02 0.03 0.04 0.03 0.03 0.03 0.03 0.02 0.01 0.02 0.02 0.02 0.02 0.01 0.02 0.02 0.02 0.02 0.01 0.01 0.01 0.01 0.01 0.02
0.01 0.01 0.01 0.01 0.02 0.01 0.01 0.00 0.00 0.00 0.00 0.01 0.01 0.01 0.01 0.03 0.03 0.04 0.03 0.04 0.04 0.02 0.02 0.04 0.02 0.02 0.02 0.01 0.01 0.01 0.01 0.02 0.01 0.01 0.01 0.02 0.02 0.02
0.01 0.01 0.01 0.01 0.01 0.01 0.01 0.01 0.00 0.00 0.00 0.00 0.01 0.01 0.01 0.02 0.03 0.04 0.03 0.02 0.02 0.02 0.03 0.05 0.05 0.03 0.03 0.02 0.01 0.01 0.01 0.02 0.02 0.02 0.01 0.02 0.02 0.02
0.01 0.01 0.01 0.01 0.01 0.01 0.01 0.01 0.00 0.00 0.00 0.00 0.01 0.02 0.03 0.05 0.07 0.06 0.04 0.04 0.04 0.03 0.03 0.04 0.06 0.06 0.05 0.03 0.01 0.01 0.02 0.02 0.03 0.04 0.03 0.02 0.02 0.02
0.01 0.01 0.01 0.01 0.01 0.01 0.01 0.01 0.01 0.01 0.01 0.01 0.01 0.03 0.07 0.12 0.09 0.06 0.04 0.04 0.04 0.04 0.04 0.04 0.05 0.06 0.06 0.04 0.03 0.03 0.03 0.03 0.04 0.06 0.04 0.03 0.04 0.04
0.01 0.01 0.01 0.01 0.01 0.01 0.01 0.01 0.01 0.01 0.01 0.01 0.03 0.04 0.06 0.07 0.05 0.04 0.04 0.04 0.04 0.03 0.04 0.05 0.05 0.05 0.06 0.06 0.05 0.04 0.04 0.05 0.05 0.06 0.07 0.07 0.07 0.07
0.02 0.01 0.01 0.01 0.01 0.01 0.01 0.01 0.01 0.01 0.02 0.02 0.03 0.03 0.03 0.04 0.05 0.05 0.04 0.04 0.03 0.03 0.03 0.04 0.06 0.06 0.06 0.06 0.06 0.06 0.06 0.07 0.06 0.08 0.10 0.10 0.07 0.05
0.01 0.01 0.01 0.01 0.01 0.01 0.01 0.01 0.01 0.01 0.02 0.02 0.03 0.03 0.03 0.03 0.04 0.04 0.05 0.04 0.04 0.04 0.04 0.05 0.06 0.07 0.06 0.04 0.05 0.07 0.08 0.07 0.06 0.06 0.08 0.10 0.10 0.07
0.01 0.01 0.01 0.01 0.01 0.01 0.01 0.01 0.01 0.01 0.01 0.01 0.02 0.02 0.03 0.03 0.04 0.05 0.07 0.07 0.07 0.07 0.06 0.07 0.07 0.07 0.07 0.06 0.06 0.06 0.06 0.06 0.06 0.06 0.07 0.08 0.10 0.10
0.01 0.01 0.01 0.01 0.00 0.01 0.01 0.01 0.02 0.04 0.04 0.03 0.03 0.03 0.03 0.04 0.05 0.07 0.09 0.10 0.09 0.07 0.05 0.04 0.05 0.05 0.06 0.06 0.06 0.06 0.06 0.08 0.08 0.08 0.08 0.07 0.09 0.10
0.03 0.02 0.01 0.01 0.01 0.01 0.01 0.02 0.02 0.02 0.03 0.04 0.04 0.05 0.06 0.07 0.06 0.06 0.05 0.06 0.06 0.05 0.04 0.04 0.05 0.05 0.04 0.05 0.05 0.05 0.06 0.07 0.09 0.12 0.13 0.11 0.10 0.11
0.05 0.03 0.01 0.01 0.01 0.01 0.01 0.01 0.01 0.01 0.02 0.02 0.02 0.03 0.03 0.03 0.03 0.03 0.03 0.03 0.04 0.05 0.05 0.05 0.06 0.06 0.04 0.04 0.05 0.06 0.06 0.06 0.06 0.06 0.08 0.09 0.08 0.07
MSLP
1016.52 1016.64 1016.78 1016.92 1017.02 1017.06 1016.99 1016.82 1016.54 1016.16 1015.69 1015.15 1014.55 1013.91 1013.23 1012.54 1011.83 1011.14 1010.49 1009.88 1009.36 1008.94 1008.61 1008.38 1008.22 1008.12 1008.05 1007.99 1007.91 1007.80 1007.68 1007.54 1007.40 1007.28 1007.18 1007.12 1007.09 1007.09
1016.33 1016.43 1016.57 1016.72 1016.86 1016.95 1016.97 1016.90 1016.73 1016.46 1016.10 1015.65 1015.12 1014.52 1013.87 1013.16 1012.42 1011.68 1010.96 1010.28 1009.68 1009.18 1008.78 1008.49 1008.28 1008.15 1008.05 1007.96 1007.87 1007.76 1007.63 1007.48 1007.32 1007.17 1007.03 1006.92 1006.83 1006.77
1016.17 1016.25 1016.37 1016.53 1016.68 1016.81 1016.89 1016.91 1016.84 1016.68 1016.43 1016.09 1015.66 1015.13 1014.53 1013.85 1013.12 1012.36 1011.60 1010.88 1010.23 1009.67 1009.21 1008.86 1008.61 1008.42 1008.29 1008.18 1008.06 1007.93 1007.78 1007.60 1007.41 1007.23 1007.04 1006.88 1006.74 1006.62
1016.06 1016.11 1016.22 1016.36 1016.51 1016.66 1016.78 1016.85 1016.86 1016.80 1016.66 1016.43 1016.10 1015.67 1015.15 1014.53 1013.84 1013.11 1012.36 1011.63 1010.96 1010.37 1009.87 1009.48 1009.17 1008.94 1008.76 1008.61 1008.45 1008.28 1008.09 1007.88 1007.66 1007.42 1007.20 1006.98 1006.79 1006.62
1015.98 1016.02 1016.10 1016.21 1016.35 1016.49 1016.63 1016.74 1016.80 1016.82 1016.77 1016.63 1016.41 1016.08 1015.65 1015.12 1014.51 1013.84 1013.14 1012.44 1011.78 1011.18 1010.67 1010.24 1009.90 1009.63 1009.40 1009.19 1008.99 1008.77 1008.53 1008.27 1007.99 1007.71 1007.44 1007.18 1006.93 1006.71
1015.92 1015.94 1015.99 1016.07 1016.18 1016.31 1016.44 1016.55 1016.65 1016.71 1016.72 1016.67 1016.53 1016.30 1015.98 1015.55 1015.03 1014.45 1013.82 1013.18 1012.57 1012.00 1011.49 1011.05 1010.68 1010.37 1010.09 1009.83 1009.57 1009.29 1008.99 1008.67 1008.35 1008.02 1007.70 1007.39 1007.10 1006.83
1015.83 1015.83 1015.86 1015.92 1016.00 1016.09 1016.20 1016.31 1016.41 1016.49 1016.54 1016.53 1016.47 1016.32 1016.09 1015.76 1015.35 1014.87 1014.33 1013.77 1013.22 1012.70 1012.21 1011.78 1011.40 1011.06 1010.73 1010.42 1010.09 1009.76 1009.40 1009.02 1008.64 1008.26 1007.90 1007.55 1007.23 1006.92
1015.66 1015.67 1015.69 1015.72 1015.78 1015.85 1015.93 1016.01 1016.10 1016.18 1016.24 1016.26 1016.24 1016.16 1016.00 1015.76 1015.44 1015.06 1014.62 1014.15 1013.67 1013.21 1012.76 1012.35 1011.96 1011.60 1011.24 1010.88 1010.50 1010.10 1009.69 1009.26 1008.83 1008.41 1008.01 1007.63 1007.27 1006.95
1015.41 1015.42 1015.45 1015.48 1015.53 1015.58 1015.64 1015.70 1015.76 1015.82 1015.87 1015.91 1015.91 1015.86 1015.75 1015.58 1015.34 1015.04 1014.69 1014.31 1013.90 1013.50 1013.10 1012.71 1012.33 1011.95 1011.57 1011.17 1010.75 1010.31 1009.85 1009.38 1008.91 1008.46 1008.03 1007.63 1007.26 1006.91
1015.05 1015.09 1015.14 1015.20 1015.25 1015.30 1015.35 1015.40 1015.44 1015.48 1015.51 1015.53 1015.53 1015.49 1015.41 1015.28 1015.10 1014.87 1014.59 1014.28 1013.94 1013.59 1013.23 1012.87 1012.51 1012.13 1011.73 1011.31 1010.87 1010.40 1009.91 1009.41 1008.92 1008.45 1008.00 1007.59 1007.22 1006.87
1014.61 1014.70 1014.79 1014.89 1014.97 1015.05 1015.10 1015.15 1015.18 1015.20 1015.21 1015.21 1015.19 1015.14 1015.07 1014.96 1014.81 1014.62 1014.39 1014.13 1013.85 1013.54 1013.22 1012.89 1012.54 1012.17 1011.78 1011.35 1010.90 1010.42 1009.92 1009.41 1008.92 1008.44 1007.99 1007.58 1007.21 1006.86
1014.12 1014.27 1014.42 1014.57 1014.71 1014.82 1014.90 1014.95 1014.98 1014.98 1014.97 1014.95 1014.91 1014.85 1014.77 1014.66 1014.52 1014.36 1014.16 1013.93 1013.68 1013.42 1013.13 1012.82 1012.49 1012.14 1011.75 1011.33 1010.88 1010.41 1009.92 1009.43 1008.94 1008.47 1008.03 1007.63 1007.27 1006.93
1013.62 1013.83 1014.05 1014.27 1014.46 1014.61 1014.72 1014.79 1014.83 1014.83 1014.80 1014.76 1014.69 1014.62 1014.52 1014.41 1014.27 1014.11 1013.93 1013.73 1013.50 1013.26 1012.99 1012.71 1012.40 1012.06 1011.69 1011.29 1010.86 1010.40 1009.94 1009.47 1009.00 1008.56 1008.13 1007.75 1007.39 1007.06
1013.12 1013.40 1013.69 1013.96 1014.21 1014.40 1014.55 1014.64 1014.68 1014.68 1014.65 1014.59 1014.51 1014.41 1014.31 1014.18 1014.05 1013.89 1013.72 1013.53 1013.32 1013.09 1012.84 1012.57 1012.27 1011.95 1011.60 1011.22 1010.81 1010.39 1009.95 1009.51 1009.07 1008.65 1008.25 1007.87 1007.53 1007.20
1012.63 1012.97 1013.31 1013.63 1013.91 1014.15 1014.32 1014.43 1014.48 1014.48 1014.45 1014.39 1014.30 1014.20 1014.09 1013.97 1013.83 1013.68 1013.51 1013.33 1013.13 1012.91 1012.67 1012.41 1012.12 1011.81 1011.47 1011.11 1010.73 1010.32 1009.91 1009.50 1009.09 1008.69 1008.31 1007.94 1007.60 1007.27
1012.14 1012.52 1012.89 1013.23 1013.54 1013.79 1013.98 1014.10 1014.16 1014.18 1014.16 1014.10 1014.03 1013.94 1013.83 1013.72 1013.59 1013.45 1013.30 1013.12 1012.92 1012.71 1012.47 1012.21 1011.92 1011.61 1011.28 1010.93 1010.56 1010.17 1009.78 1009.38 1008.99 1008.60 1008.23 1007.86 1007.51 1007.17
1011.61 1012.00 1012.38 1012.73 1013.04 1013.29 1013.49 1013.62 1013.70 1013.74 1013.74 1013.71 1013.66 1013.60 1013.52 1013.43 1013.32 1013.20 1013.06 1012.89 1012.70 1012.48 1012.24 1011.97 1011.68 1011.36 1011.02 1010.65 1010.28 1009.89 1009.50 1009.11 1008.72 1008.33 1007.95 1007.58 1007.22 1006.86
1011.01 1011.39 1011.75 1012.09 1012.39 1012.64 1012.84 1012.99 1013.10 1013.17 1013.21 1013.22 1013.22 1013.20 1013.16 1013.11 1013.04 1012.94 1012.81 1012.65 1012.46 1012.24 1011.99 1011.70 1011.39 1011.04 1010.68 1010.30 1009.90 1009.49 1009.08 1008.67 1008.27 1007.86 1007.47 1007.07 1006.68 1006.30
1010.30 1010.66 1011.00 1011.32 1011.60 1011.85 1012.06 1012.24 1012.39 1012.51 1012.61 1012.69 1012.75 1012.79 1012.81 1012.80 1012.76 1012.69 1012.58 1012.43 1012.24 1012.00 1011.73 1011.42 1011.07 1010.70 1010.30 1009.87 1009.44 1009.00 1008.55 1008.11 1007.67 1007.23 1006.81 1006.38 1005.96 1005.54
1009.49 1009.82 1010.14 1010.44 1010.73 1010.99 1011.23 1011.45 1011.66 1011.85 1012.02 1012.18 1012.31 1012.42 1012.50 1012.53 1012.53 1012.48 1012.38 1012.23 1012.03 1011.78 1011.48 1011.14 1010.76 1010.34 1009.90 1009.43 1008.94 1008.45 1007.96 1007.47 1006.98 1006.51 1006.04 1005.57 1005.12 1004.66
1008.61 1008.92 1009.23 1009.53 1009.83 1010.12 1010.41 1010.70 1010.98 1011.26 1011.52 1011.76 1011.97 1012.14 1012.27 1012.35 1012.37 1012.33 1012.23 1012.07 1011.85 1011.58 1011.25 1010.87 1010.45 1010.00 1009.51 1008.99 1008.45 1007.91 1007.36 1006.81 1006.28 1005.75 1005.23 1004.72 1004.22 1003.73
1007.69 1008.01 1008.33 1008.65 1008.99 1009.34 1009.70 1010.07 1010.45 1010.81 1011.16 1011.48 1011.76 1011.98 1012.14 1012.24 1012.27 1012.22 1012.10 1011.92 1011.68 1011.37 1011.02 1010.61 1010.15 1009.66 1009.13 1008.57 1007.99 1007.39 1006.79 1006.19 1005.59 1005.01 1004.44 1003.88 1003.34 1002.81
1006.81 1007.16 1007.52 1007.90 1008.31 1008.73 1009.18 1009.64 1010.11 1010.56 1010.98 1011.36 1011.68 1011.93 1012.11 1012.19 1012.20 1012.12 1011.97 1011.76 1011.48 1011.14 1010.75 1010.32 1009.84 1009.31 1008.76 1008.16 1007.54 1006.90 1006.26 1005.60 1004.95 1004.32 1003.69 1003.09 1002.50 1001.93
Thickness
5754 5752 5750 5748 5746 5743 5740 5735 5726 5717 5716 5718 5718 5719 5717 5715 5713 5711 5709 5707 5706 5704 5701 5699 5696 5694 5693 5691 5689 5687 5686 5684 5682 5680 5679 5677 5675 5674
5753 5750 5748 5746 5744 5742 5739 5736 5732 5725 5717 5718 5717 5717 5715 5713 5711 5708 5706 5704 5702 5700 5698 5696 5694 5692 5690 5688 5686 5684 5682 5680 5678 5677 5675 5674 5672 5670
5750 5748 5746 5745 5742 5739 5737 5734 5730 5726 5719 5717 5716 5715 5712 5710 5708 5705 5703 5701 5699 5697 5695 5693 5691 5689 5687 5685 5683 5681 5678 5676 5675 5673 5672 5670 5668 5667
5747 5745 5744 5743 5740 5737 5734 5731 5728 5726 5720 5715 5713 5711 5709 5707 5705 5702 5700 5699 5697 5695 5693 5691 5689 5686 5684 5682 5680 5677 5675 5673 5671 5669 5668 5667 5665 5663
5745 5743 5741 5739 5736 5734 5732 5729 5726 5725 5721 5715 5710 5709 5706 5704 5701 5699 5697 5694 5693 5692 5690 5688 5686 5684 5681 5679 5676 5674 5672 5669 5667 5665 5664 5662 5660 5659
5743 5741 5739 5737 5734 5732 5729 5726 5723 5720 5716 5712 5708 5705 5703 5701 5697 5693 5690 5689 5688 5688 5686 5684 5682 5680 5678 5675 5673 5670 5668 5666 5663 5661 5659 5657 5656 5655
5738 5737 5736 5735 5733 5730 5727 5723 5719 5715 5712 5708 5704 5701 5698 5695 5692 5690 5687 5685 5683 5683 5680 5679 5677 5675 5674 5671 5669 5667 5664 5661 5659 5657 5655 5653 5652 5650
5732 5731 5731 5730 5729 5726 5724 5720 5717 5712 5708 5704 5701 5697 5695 5693 5690 5687 5682 5678 5676 5679 5675 5673 5672 5670 5670 5668 5666 5663 5661 5658 5655 5653 5651 5649 5647 5645
5727 5725 5725 5725 5723 5720 5717 5716 5712 5710 5707 5703 5698 5696 5693 5691 5686 5682 5679 5676 5675 5676 5672 5668 5667 5665 5666 5665 5663 5660 5657 5654 5652 5650 5647 5645 5643 5641
5722 5721 5719 5717 5717 5713 5710 5708 5705 5704 5702 5700 5697 5695 5693 5690 5686 5682 5678 5674 5672 5671 5668 5662 5663 5661 5662 5660 5659 5657 5654 5651 5649 5646 5644 5641 5639 5636
5716 5715 5713 5710 5709 5706 5703 5700 5698 5697 5696 5695 5693 5691 5688 5685 5681 5676 5671 5666 5663 5663 5663 5659 5658 5656 5655 5655 5655 5653 5650 5648 5645 5642 5640 5638 5635 5632
5709 5708 5706 5704 5701 5699 5695 5692 5690 5689 5689 5687 5686 5684 5682 5680 5677 5673 5669 5663 5659 5657 5659 5655 5652 5649 5647 5650 5649 5647 5645 5643 5641 5639 5636 5634 5631 5627
5700 5699 5699 5697 5694 5692 5689 5687 5685 5683 5681 5679 5678 5677 5675 5673 5671 5669 5667 5662 5657 5654 5655 5651 5647 5643 5641 5641 5642 5642 5640 5638 5636 5634 5632 5629 5626 5623
5694 5693 5691 5689 5687 5685 5682 5681 5678 5675 5673 5671 5669 5669 5667 5666 5666 5664 5662 5659 5657 5654 5653 5649 5644 5640 5636 5634 5634 5635 5635 5634 5632 5630 5628 5625 5622 5620
5688 5686 5684 5682 5680 5678 5676 5673 5671 5668 5665 5662 5661 5661 5661 5660 5658 5657 5655 5653 5651 5649 5647 5645 5641 5638 5634 5632 5630 5629 5628 5628 5627 5625 5623 5621 5618 5616
5679 5678 5676 5674 5672 5670 5667 5665 5663 5661 5658 5656 5655 5654 5653 5651 5649 5648 5646 5645 5642 5641 5641 5639 5636 5634 5630 5629 5627 5625 5624 5622 5622 5621 5619 5617 5615 5613
5670 5668 5666 5664 5661 5660 5658 5656 5655 5653 5650 5649 5647 5645 5644 5642 5641 5640 5638 5636 5633 5632 5631 5631 5630 5628 5626 5624 5622 5621 5620 5619 5619 5616 5613 5612 5612 5611
5662 5659 5657 5655 5653 5651 5650 5648 5647 5645 5643 5641 5639 5637 5635 5634 5633 5631 5630 5627 5626 5625 5624 5623 5621 5619 5618 5618 5619 5617 5616 5615 5614 5611 5609 5607 5608 5608
5653 5652 5650 5648 5646 5645 5643 5641 5639 5637 5635 5633 5631 5629 5627 5626 5624 5622 5621 5619 5619 5618 5617 5615 5613 5610 5609 5610 5614 5613 5610 5610 5608 5607 5605 5604 5604 5605
5648 5646 5644 5642 5639 5637 5635 5633 5631 5630 5627 5625 5623 5621 5620 5618 5616 5614 5613 5611 5610 5610 5609 5608 5606 5605 5604 5605 5606 5607 5606 5604 5603 5602 5601 5601 5600 5600
5643 5640 5638 5636 5632 5630 5627 5625 5623 5621 5619 5617 5615 5613 5612 5610 5608 5607 5606 5604 5602 5602 5602 5602 5603 5602 5601 5598 5598 5599 5600 5599 5599 5598 5597 5594 5593 5592
5637 5635 5633 5630 5626 5623 5620 5618 5615 5613 5611 5609 5608 5606 5605 5603 5602 5600 5599 5597 5596 5595 5596 5597 5597 5595 5593 5591 5592 5593 5592 5592 5593 5593 5592 5592 5589 5588
5631 5628 5626 5624 5620 5617 5614 5611 5608 5606 5605 5604 5601 5599 5598 5596 5595 5594 5593 5592 5591 5590 5589 5589 5589 5588 5587 5586 5585 5585 5585 5584 5584 5584 5585 5587 5587 5587